Torna al catalogo

BREEZE-M DEB

TANK

AttivoHEO
NORAD 32480·DEBRIS·🇷🇺 Russia

Lanciato Jan 28, 2008 da Baikonur Cosmodrome

Loading…

Prossimi Passaggi (prossime 24 ore)

TLE

AggiornatoSource: Space-Track

Epoca: Sep 14, 2026, 14:32 UTC

1 32480U 08003C   26257.60621157  .00000013  00000-0  14800-2 0  9997
2 32480  45.0048 107.8999 7078791  87.8178 344.5861  2.30100027156470

Traccia BREEZE-M DEB in tempo reale con AllMySat

Download on the App Store